Regional Weather Roundup
Issued by NWS Sioux Falls, SD

Home | Current Version | Previous Version | Text Only | Print | Product List | Glossary On
Versions: 1 2 3 4 5 6 7 8 9 10 11 12 13 14 15 16 17 18 19 20 21 22 23 24 25 26 27 28 29 30 31 32 33 34 35 36 37 38 39 40 41 42 43 44 45 46 47 48 49 50
000
ASUS43 KFSD 310710
RWRFSD

WEATHER ROUNDUP FOR SE SOUTH DAKOTA/SW MINNESOTA/NW IOWA
NATIONAL WEATHER SERVICE SIOUX FALLS SD
200 AM CDT SUN JUL 31 2016

NOTE: "FAIR" INDICATES FEW OR NO CLOUDS BELOW 12,000 FEET WITH NO
SIGNIFICANT WEATHER AND OR OBSTRUCTIONS TO VISIBILITY.


SDZ038>040-050-052>070-310800-
SOUTHEAST SOUTH DAKOTA

CITY           SKY/WX    TMP DP  RH WIND       PRES   REMARKS
BROOKINGS      PTCLDY    63  58  83 SE10      29.95S
CHAMBERLAIN    CLOUDY    73  69  87 SE13      29.87R
HURON          MOCLDY    71  62  73 SE10      29.88F
MADISON        PTSUNNY   64  64 100 SE7       29.95S
MITCHELL       CLOUDY    74  64  71 SE14      29.90S
SIOUX FALLS    CLEAR     68  61  78 S5        29.95S
WINNER         FAIR      75  69  81 SW24G33   29.85F
YANKTON        CLOUDY    72  63  73 E9        29.91F
$$

MNZ071-072-080-081-089-090-097-098-310800-
SOUTHWEST MINNESOTA

CITY           SKY/WX    TMP DP  RH WIND       PRES   REMARKS
FAIRMONT       CLEAR     63  59  88 S5        29.99R
JACKSON        CLEAR     66  61  82 SE7       30.00S
LUVERNE        CLEAR     61  55  82 SE3       29.97F
MARSHALL       CLEAR     65  61  87 S8        29.96F
MONTEVIDEO     CLEAR     63  59  88 S7        29.98S
REDWOOD FALLS  CLEAR     65  62  90 SE7       29.97R
TRACY          CLEAR     65  63  90 S7        29.97F
WINDOM         CLEAR     66  63  88 SE6       29.99S
WORTHINGTON    CLEAR     65  62  90 S8        29.99F
$$

IAZ001>003-012>014-020>022-031-032-NEZ013-014-SDZ071-310800-
NORTHWEST IOWA

CITY           SKY/WX    TMP DP  RH WIND       PRES   REMARKS
CHEROKEE       CLOUDY    64  64  98 CALM      29.98S
DENISON        CLOUDY    66  64  94 E3        29.96F
ESTHERVILLE    CLEAR     63  63 100 S6        29.99R
LE MARS        CLOUDY    66  63  88 S6        29.96F
SHELDON        CLOUDY    63  61  94 SE5       29.97S
SIOUX CITY     CLOUDY    68  63  84 SE6       29.95S
SPENCER        PTCLDY    65  61  87 S3        30.00R
STORM LAKE     CLOUDY    63  63 100 S7        30.00S
$$

ABBREVIATIONS USED IN REMARKS
   TC - TEMPERATURE IN CELSIUS
  WCI - WIND CHILL INDEX
   HX - HEAT INDEX
  VSB - VISIBILITY





USA.gov is the U.S. government's official web portal to all federal, state and local government web resources and services.